GFSNGP_con_mlcape_057.txt.gz
CAPE
0 0 0 0 0 0 0 0 0 0 13 55 169 125 84 92 35 1 21 104 1174 1851 1473 1462 1599 1880 1878 1541 1165 794 624 481 351 356 197 149 82 26 35 17 0 0 0 0
0 0 0 0 0 0 0 0 0 7 13 81 154 170 107 102 5 44 40 758 1709 1918 1643 1698 1970 2037 1783 1552 1329 692 478 439 392 520 234 211 122 82 90 37 14 0 0 0
1 1 0 0 0 2 0 19 16 15 33 110 186 268 205 141 15 507 1381 2023 2130 2048 2133 2052 1958 1723 1628 1548 1340 674 351 373 370 625 433 252 132 80 78 79 31 1 0 0
37 5 0 0 27 59 95 198 204 64 34 55 141 236 257 34 21 865 1461 2611 2380 2283 2181 1857 1660 1396 1175 1259 1220 983 589 389 461 573 435 260 202 158 48 50 42 25 0 0
7 1 0 30 181 225 125 60 222 185 144 114 174 271 344 551 120 369 1450 2686 2549 2345 2069 1775 1791 1517 1412 1294 1042 881 686 534 497 668 527 316 143 77 22 8 8 42 0 0
0 0 0 106 615 707 283 1 160 334 242 175 261 256 168 1099 1208 1150 1893 2696 2740 2401 1856 1605 1413 1337 1524 1403 1220 1054 867 742 593 559 418 327 103 17 0 0 1 23 14 0
0 0 0 194 403 568 47 0 41 53 56 338 197 238 929 1695 1836 2106 2368 2450 2221 2117 1999 1489 1290 1549 1577 1330 1289 999 759 540 414 350 216 111 55 15 0 0 1 8 7 2
0 0 0 72 392 255 15 0 34 18 38 201 362 876 1691 1847 1796 1812 1827 1934 1820 1695 1547 1289 1339 1369 1180 1026 591 502 332 230 38 0 1 30 120 113 8 0 0 38 12 24
105 75 0 2 0 0 0 0 50 77 124 187 243 648 934 1150 1261 1114 1233 1350 1243 1539 1524 1301 1257 1229 1138 788 579 392 222 77 11 59 91 66 100 159 93 0 0 0 3 1
2 10 0 0 0 0 0 0 0 47 83 177 216 305 316 941 1112 1139 944 938 815 941 1416 1340 1035 925 851 686 557 420 290 231 94 65 32 0 0 0 20 103 121 55 62 81
0 0 0 0 0 0 0 0 0 0 0 0 62 115 81 251 772 678 548 465 393 684 660 551 335 290 158 79 90 133 74 47 35 22 6 0 0 0 0 0 0 11 62 97
0 0 0 0 0 0 0 0 0 0 0 0 0 47 341 253 497 627 283 31 0 0 0 0 0 0 0 0 0 0 0 0 0 0 0 0 0 0 0 0 0 0 0 0
0 0 0 0 0 0 0 0 0 0 0 0 27 108 144 435 502 442 233 128 92 105 102 53 24 7 0 0 0 0 0 0 0 0 0 0 0 0 0 0 0 0 0 0
0 0 0 0 0 0 0 0 0 0 0 10 0 0 0 14 145 210 202 220 251 306 270 183 77 32 12 0 0 0 0 0 0 0 0 0 0 0 0 1 1 0 0 0
0 0 0 0 0 0 1 0 0 0 0 0 0 0 0 0 45 77 143 258 286 357 438 374 258 200 111 40 5 0 0 0 0 0 0 0 0 0 0 0 2 0 1 0
0 0 0 0 9 6 14 0 0 0 2 7 8 0 0 16 38 27 52 95 23 9 0 0 0 0 0 17 25 22 4 0 0 0 0 0 0 0 0 0 0 0 0 0
3 24 33 1 54 20 34 34 19 42 10 11 27 28 0 0 0 0 0 0 0 0 0 0 0 0 0 0 0 0 0 0 26 2 2 1 6 6 0 0 0 0 1 9
72 39 88 112 107 35 17 30 3 1 0 0 15 25 2 2 0 0 0 0 0 0 0 0 0 0 0 0 0 0 0 0 0 0 10 6 16 14 6 0 0 0 0 0
43 122 172 169 20 0 24 15 11 7 3 0 0 0 0 0 0 0 0 0 0 0 0 0 0 0 0 0 0 0 0 0 0 0 0 6 5 0 5 1 0 0 0 0
55 50 61 97 106 91 47 5 0 0 0 0 0 0 0 0 0 0 0 0 0 0 0 0 0 0 0 0 0 0 0 0 0 0 0 3 6 3 2 0 0 0 0 0
10 5 5 61 78 59 33 4 1 0 0 0 0 0 0 0 0 0 0 0 0 0 0 0 0 0 0 0 0 0 0 0 0 0 0 20 23 6 0 0 0 0 0 0
0 0 0 2 21 19 0 0 0 0 0 0 0 0 0 0 0 0 0 0 1 0 0 1 0 0 0 0 0 0 1 1 0 0 0 1 4 0 0 0 0 0 0 0
0 0 0 0 0 0 0 0 0 0 0 0 0 0 0 0 0 0 0 0 0 0 0 0 0 0 0 0 0 0 0 2 3 1 1 0 0 0 0 0 0 0 0 0
0 0 0 0 0 0 0 0 0 0 0 0 0 0 0 0 0 0 1 0 0 0 0 0 0 0 0 0 0 0 0 0 1 0 0 0 0 0 0 0 0 0 0 0
0 0 0 0 0 0 0 0 0 0 0 0 0 0 0 0 0 0 0 0 0 0 0 0 0 0 0 0 0 0 0 0 0 0 0 0 0 0 0 0 0 0 0 0
0 0 0 0 0 0 0 0 0 0 0 0 0 0 0 0 0 0 0 0 0 0 0 0 0 0 0 0 0 0 0 0 0 0 0 0 1 0 1 1 1 1 0 1
0 0 0 0 0 0 0 0 0 0 0 0 0 0 0 0 0 0 0 0 0 0 0 0 0 0 0 0 0 0 0 0 0 0 0 0 0 0 0 0 0 0 0 0

GFSNGP_con_mlcape_060.txt.gz
CAPE
0 0 0 0 0 0 0 0 1 1 0 0 14 406 1043 1084 358 277 276 127 1162 1449 1617 1246 1286 1574 1828 1802 1372 864 714 579 397 247 240 102 65 24 16 7 16 0 0 0
0 0 0 0 0 0 0 0 0 1 2 1 30 104 772 1073 596 152 80 0 108 1107 1669 1312 1454 1637 1776 1736 1161 727 618 574 395 314 214 195 87 21 34 12 3 10 23 0
0 0 0 0 0 0 16 29 31 29 67 38 55 81 140 154 166 73 44 1 72 900 1589 1379 1540 1799 2059 1657 1157 862 520 395 337 402 389 226 120 64 42 27 10 22 0 0
14 10 0 0 97 81 203 233 175 189 157 169 117 63 48 105 138 91 59 196 1213 1886 1671 1461 1809 1951 1714 1449 1315 1007 620 302 265 314 434 427 287 116 63 34 6 8 1 0
2 9 0 43 485 426 392 72 108 124 148 212 180 132 149 208 80 69 46 873 1523 1995 1736 1800 1673 1423 1272 1246 1248 1116 902 573 304 298 380 387 371 201 109 71 10 6 3 0
0 2 6 173 388 260 429 39 94 137 171 226 267 12 97 905 1367 278 22 737 1382 2020 1722 1611 1559 1500 1371 1265 1160 1028 821 549 300 336 412 342 127 44 23 20 2 0 0 0
0 0 0 51 158 190 57 0 51 120 140 297 302 343 791 1421 1658 1345 1009 842 1021 2042 2007 1843 1576 1373 1378 1279 1128 835 647 455 347 226 202 140 6 0 0 0 0 1 8 0
0 0 0 8 52 210 10 0 0 35 151 185 146 339 595 1282 1570 1475 1461 1482 1598 1506 1065 1018 970 1184 1233 1100 517 383 261 151 72 4 0 0 0 16 13 0 0 0 0 0
75 24 0 0 0 0 0 0 0 8 67 74 149 136 148 414 824 1054 943 796 661 192 919 812 728 939 945 495 278 75 19 10 2 0 0 2 35 67 54 0 0 0 0 1
0 0 0 0 0 0 0 0 0 0 0 0 0 6 65 86 373 827 761 499 62 123 240 496 615 590 489 370 254 148 104 51 46 36 15 0 0 0 10 43 53 18 10 1
0 0 0 0 0 0 0 0 0 0 0 0 0 0 0 0 168 605 791 695 137 5 12 30 86 370 334 290 321 247 97 50 8 0 0 0 0 0 0 0 0 0 4 11
0 0 0 0 0 0 0 0 0 0 0 0 0 0 0 0 12 225 607 247 211 267 288 238 146 30 25 60 50 7 0 0 0 0 0 0 0 0 0 0 0 0 0 0
0 0 0 0 0 0 0 0 0 0 0 1 0 0 2 197 184 250 201 16 50 117 12 0 0 0 0 0 0 0 0 0 0 0 0 0 0 0 0 0 0 0 0 0
0 0 0 0 0 0 0 0 0 0 2 1 3 0 2 2 1 5 1 37 10 8 1 0 32 10 1 1 0 0 0 0 0 0 0 0 0 0 0 0 0 0 0 0
0 0 0 0 0 0 0 0 0 0 0 0 5 0 1 0 6 0 14 10 27 40 46 64 69 19 8 18 0 0 0 0 0 0 0 0 0 0 0 0 0 0 0 0
0 0 0 0 0 0 0 2 2 2 11 1 1 2 10 14 4 0 0 0 1 4 0 0 0 0 0 1 1 0 0 7 0 0 0 0 0 0 0 0 0 0 0 0
0 0 0 0 1 0 0 0 0 10 9 0 1 0 0 0 0 0 0 0 0 0 0 0 0 0 0 0 0 0 0 0 0 0 2 31 16 7 0 0 0 0 0 0
28 61 91 76 39 13 16 2 0 0 0 0 0 0 0 0 0 0 0 0 0 0 0 0 0 0 0 0 0 0 0 0 0 0 0 0 0 0 8 4 8 1 0 0
65 130 78 18 0 25 21 6 2 1 0 0 0 0 0 0 0 0 0 0 0 0 0 0 0 0 0 0 0 0 0 0 0 0 0 0 0 0 5 20 10 3 0 0
37 30 48 54 60 31 25 14 7 1 0 0 0 0 0 0 0 0 0 0 0 0 0 0 0 0 0 0 0 0 0 0 0 0 0 0 0 15 20 4 1 0 0 0
28 16 48 74 63 15 4 0 0 0 0 0 0 0 0 0 0 0 0 0 0 1 1 1 0 0 1 1 0 0 0 0 0 0 0 0 0 0 0 0 0 0 0 0
1 11 12 26 6 0 0 0 0 0 0 0 0 0 0 0 0 1 1 0 1 0 1 0 0 0 0 0 0 0 0 2 2 2 0 0 0 0 0 0 0 0 0 1
0 0 2 5 1 0 0 0 0 0 0 0 0 0 0 0 1 2 0 1 0 0 0 0 0 0 0 0 1 0 0 0 0 0 0 0 0 0 0 0 1 0 0 0
0 0 0 0 0 0 0 0 0 0 0 0 0 0 0 0 0 0 0 0 0 0 0 0 0 0 0 0 0 0 0 0 0 0 0 0 0 0 0 0 0 0 0 0
0 0 2 1 1 0 0 0 0 0 0 0 0 0 0 0 0 0 0 0 0 0 0 0 0 0 0 0 0 0 0 0 0 0 0 0 0 0 0 0 0 0 0 0
0 0 0 0 0 0 0 0 0 0 0 0 0 0 0 0 0 0 0 0 0 0 0 0 0 0 0 0 0 0 0 0 0 0 0 0 0 0 0 0 0 0 0 0
0 0 0 0 1 0 0 0 0 0 0 0 0 0 0 0 0 0 0 0 0 0 0 0 0 0 0 0 0 0 0 0 0 0 0 0 0 0 0 0 0 0 0 0

GFSNGP_con_mlcape_063.txt.gz
CAPE
0 0 0 0 0 0 0 15 27 22 18 78 37 73 300 920 1433 984 937 509 863 2000 2703 2326 1974 1833 1983 2286 2368 2015 1596 1367 1154 850 806 694 432 349 231 139 147 73 48 94
22 0 0 0 0 0 0 0 8 35 40 71 125 195 241 350 908 1204 1090 612 442 1104 2100 1972 1788 1858 2131 2481 2344 1900 1527 1362 1157 893 814 697 535 397 258 133 65 23 1 20
1 17 1 0 0 0 15 29 62 51 119 278 167 202 212 308 344 380 768 572 202 204 1538 1911 1924 1961 2211 2475 2213 1729 1378 1333 1183 1005 821 816 752 542 367 232 102 7 8 0
5 24 0 0 449 244 198 256 263 277 269 277 307 450 540 947 567 375 288 258 203 416 1182 2025 2070 2102 2568 2483 2132 1739 1343 1146 1107 969 997 995 866 739 585 512 286 178 6 0
0 14 3 184 511 592 506 204 191 199 270 397 478 364 565 977 1482 1721 442 269 610 1723 2111 1989 1947 2162 2516 2403 2095 1813 1382 1093 915 975 1036 1080 877 620 521 401 271 125 28 0
0 2 0 215 297 247 581 250 180 272 333 278 572 82 446 970 1410 1548 1691 465 1121 2063 2212 2087 2315 2419 2301 2152 2029 1833 1707 1409 1043 912 897 596 610 330 159 188 208 17 4 2
0 0 0 84 164 262 407 76 107 220 297 282 416 451 468 917 1293 1378 1390 1539 1211 1502 2033 2176 1889 1841 1865 1705 1691 1575 1287 1043 932 869 823 741 316 231 177 141 54 41 2 1
0 0 0 28 43 312 101 12 4 46 77 134 264 223 415 616 1020 961 1308 1475 1275 1082 948 830 821 1376 1576 1717 1133 1040 955 866 688 495 255 263 187 81 139 53 12 17 7 1
172 25 0 39 0 0 0 0 0 0 0 0 3 12 5 60 600 962 1023 1170 1193 929 424 130 165 121 447 277 311 397 445 244 130 68 2 29 31 46 28 19 3 2 0 3
0 0 0 19 22 0 0 0 0 1 0 0 0 0 0 3 82 717 858 936 602 181 135 0 0 2 249 133 202 124 101 89 94 77 46 50 16 28 38 1 29 28 18 0
0 0 0 0 0 0 0 0 0 0 2 2 22 31 63 81 117 142 713 833 300 141 82 0 24 151 192 196 195 215 174 166 163 87 36 20 1 0 0 0 0 0 0 0
0 0 0 0 0 0 0 0 0 3 3 1 1 3 5 112 249 378 361 716 276 18 12 16 67 29 176 205 111 158 221 155 93 26 11 5 0 0 0 0 0 0 0 0
0 3 0 6 0 0 0 0 0 5 8 9 18 14 10 9 22 101 252 537 401 37 12 1 20 117 67 21 41 29 3 0 0 0 0 0 0 0 0 0 0 0 0 0
6 14 0 0 0 0 0 0 0 3 9 13 3 21 11 4 6 2 1 0 0 2 11 10 8 7 1 0 0 1 0 0 5 0 0 0 0 0 0 0 0 1 0 0
27 68 10 4 0 0 7 11 14 14 51 3 9 20 24 3 0 1 0 0 0 0 5 24 36 48 35 82 64 50 55 63 52 14 4 0 0 0 0 0 0 0 1 0
7 0 4 14 21 19 74 59 39 73 53 40 53 11 4 1 1 1 0 0 0 1 2 0 0 0 2 134 202 221 247 118 53 136 116 88 63 41 50 26 13 0 0 4
7 73 73 136 116 90 67 30 28 64 20 5 1 1 0 0 0 0 0 0 0 0 0 0 0 0 0 0 0 0 0 0 0 0 2 100 139 103 70 65 62 43 34 8
28 276 236 204 113 114 64 47 46 31 10 1 2 4 0 0 0 0 0 0 0 0 0 0 0 0 0 0 0 0 0 0 0 0 0 0 9 0 58 91 82 59 47 37
298 312 182 126 181 111 32 20 16 7 0 0 0 0 0 0 0 0 0 0 0 0 0 2 0 1 2 1 0 0 0 0 0 0 0 0 0 26 43 37 46 32 3 0
150 122 172 210 195 198 139 79 9 0 0 0 0 0 0 0 0 0 0 0 0 1 3 0 4 2 1 0 1 1 2 6 3 1 0 0 5 8 1 0 0 0 0 0
115 115 124 167 141 68 23 5 0 0 0 0 0 0 0 1 4 5 0 0 3 0 3 1 2 3 2 0 2 5 2 1 1 4 3 4 2 0 0 0 0 0 0 1
1 38 71 100 86 5 0 0 0 0 0 0 0 0 1 3 0 2 2 2 4 0 1 1 2 1 1 1 3 3 2 3 3 3 4 3 3 2 3 3 2 1 3 1
13 11 12 41 29 0 0 0 0 0 0 0 1 1 2 2 2 2 3 1 4 0 3 0 0 0 0 1 2 4 1 2 2 1 0 0 0 2 6 6 4 4 7 8
1 24 21 20 0 0 0 0 0 0 1 2 2 2 1 2 1 1 0 0 0 0 0 0 0 0 0 1 2 1 0 1 5 4 0 0 0 0 3 4 3 3 0 0
0 0 40 53 7 1 0 0 0 0 0 1 2 1 1 0 0 0 0 0 0 0 0 0 0 0 0 0 0 0 0 0 0 0 0 0 0 0 0 0 0 0 0 0
0 0 5 10 13 1 0 0 0 0 0 0 0 0 0 0 0 0 0 0 0 0 0 0 0 0 0 0 0 0 0 0 0 0 0 0 0 0 0 0 0 0 0 0
7 0 8 1 15 1 0 0 0 0 0 0 0 0 0 0 0 0 0 0 0 0 0 0 0 0 0 0 0 0 0 0 0 0 0 0 0 0 0 0 0 0 0 0

GFSNGP_con_mlcape_069.txt.gz
CAPE
1 0 20 2 0 0 0 0 4 88 449 139 944 993 944 1422 2151 2318 2046 1996 2961 3125 3189 3139 2807 2661 2611 2619 2687 2521 2822 2711 2125 2101 1921 1675 1237 1040 858 804 775 703 606 474
81 47 9 5 0 5 12 6 2 0 74 30 914 1177 1102 1084 1122 1689 2224 2322 2262 2467 3401 3609 3450 3158 2944 2784 3017 2720 2854 2730 2187 2176 1921 1693 1462 1197 1018 976 888 778 639 585
67 53 20 2 11 20 15 18 38 375 1066 964 1081 1614 1577 1557 1801 1848 1509 1481 2175 2272 2262 3116 3975 3602 3211 3129 3316 3083 3106 2752 2286 2271 1978 1811 1574 1213 1262 1314 1188 1112 1015 805
108 68 4 644 542 117 132 647 592 1138 973 1106 1206 1653 1669 1658 1940 2091 2416 2652 1934 1759 2231 2069 2907 3788 3579 3437 3667 3509 3348 2852 2436 2296 2098 1948 1702 1608 1702 1699 1484 1247 1172 1018
51 10 7 766 884 587 324 978 1054 1252 1359 1312 1260 1675 1954 1554 1669 2058 2492 2812 2841 1683 1658 1956 1890 3047 3670 3631 3623 3613 3410 2805 2457 2229 2081 1836 1774 1902 2013 1868 1445 1226 1036 955
37 48 61 1168 921 1059 1018 849 1241 1312 1414 1425 1613 723 1681 1263 1383 1675 2089 2379 2837 2502 2341 1844 1633 2982 3685 3543 3230 3357 3334 2609 2349 2174 1993 1905 1962 1978 2277 1719 1253 905 821 693
0 0 84 726 769 1161 450 815 929 913 975 1119 1253 1172 1099 1049 903 935 1134 1929 2130 3159 2722 3504 2840 3542 3148 3030 3176 3335 2863 2527 2374 2219 2055 1882 2240 2261 1598 1262 938 892 694 584
23 52 71 637 473 958 885 763 610 665 698 777 794 806 761 780 905 968 1011 1121 1853 2049 2717 3503 3138 2767 2840 3221 2976 2897 2692 2599 2419 2361 2038 2132 2131 1978 1315 1076 998 682 534 513
819 610 893 550 444 289 192 308 298 319 314 339 516 649 642 538 560 713 886 939 1216 1678 1976 2335 2884 2677 2360 2351 2358 2609 2581 2487 2489 2175 2068 1901 1765 1254 759 702 516 648 373 310
126 498 531 553 310 149 120 150 120 151 217 233 230 207 219 244 319 380 442 532 753 1227 1857 2246 2398 2562 1730 1435 1396 1558 1475 1463 1394 1396 1338 1146 1182 797 599 467 352 303 319 453
378 28 36 100 133 127 86 133 142 167 202 250 223 270 317 201 503 371 403 678 799 832 1486 1783 2236 1750 1647 1144 1027 857 757 729 803 863 766 580 728 577 564 436 195 232 145 138
160 229 81 422 163 66 61 128 158 191 281 374 345 279 341 201 145 89 76 92 314 685 1284 1428 1430 1289 1198 1188 914 855 422 455 413 512 631 855 785 211 12 9 0 0 0 0
323 48 71 41 68 18 0 59 230 308 580 493 301 523 119 20 57 165 66 8 5 4 419 845 1013 919 928 927 823 714 579 486 631 729 595 291 125 74 129 0 0 0 0 0
24 0 0 19 12 0 2 22 185 407 648 626 504 507 320 0 0 0 3 15 5 2 2 2 3 1 2 184 558 526 546 166 312 130 70 9 3 4 0 50 47 10 0 0
0 0 0 0 3 15 11 118 166 206 572 567 543 514 140 0 0 0 0 0 4 0 0 0 0 0 0 0 1 1 0 3 12 19 34 31 67 47 52 47 15 32 85 0
35 26 54 77 121 133 110 92 232 408 633 425 422 253 31 0 0 0 0 0 4 0 0 3 1 0 0 0 0 2 0 0 0 0 15 62 52 22 29 32 44 100 91 33
36 39 152 105 165 180 286 387 334 284 241 202 242 174 95 48 27 1 0 0 0 0 2 0 0 0 0 0 0 8 0 19 0 1 0 53 62 50 30 43 78 166 239 43
112 285 263 304 198 333 400 173 34 54 156 255 279 227 199 149 89 47 23 8 20 19 1 1 0 0 1 2 0 0 4 34 47 61 59 27 44 70 69 55 91 116 113 85
493 487 368 435 360 304 207 164 11 14 56 86 85 62 37 28 21 14 6 3 6 13 0 2 0 2 2 0 0 0 0 4 10 3 11 20 8 12 53 74 87 47 26 0
504 440 348 310 350 158 128 124 172 198 86 75 57 31 34 19 7 12 7 3 2 1 5 3 1 0 3 2 0 6 1 4 2 1 1 7 20 21 12 3 0 0 0 4
491 470 372 259 189 188 190 184 106 86 71 23 16 13 2 0 3 4 4 2 3 3 2 0 2 4 1 3 10 11 7 6 4 3 10 9 15 4 2 1 1 0 0 0
554 627 568 407 375 371 342 215 134 53 24 22 5 8 7 0 2 4 2 0 1 0 0 3 4 0 0 0 10 4 0 0 0 0 0 2 0 0 0 0 0 0 0 0
295 218 304 328 373 485 399 171 53 18 17 1 2 1 2 4 3 3 6 3 2 1 1 3 0 0 0 1 0 0 1 6 3 2 2 1 0 0 1 2 1 0 0 0
93 236 343 353 374 298 181 97 31 6 2 3 7 2 5 3 3 0 0 0 0 0 0 0 0 0 0 10 6 5 0 0 0 0 1 2 2 3 2 0 0 0 0 0
1 2 2 77 297 238 201 127 15 10 2 5 6 0 7 13 6 0 0 0 0 0 0 0 0 0 0 0 0 0 0 1 0 0 0 0 0 0 0 0 0 0 0 0
91 1 25 475 459 303 177 13 6 4 9 9 9 12 6 0 0 0 0 0 0 0 1 1 0 0 0 0 0 0 0 0 0 0 0 0 0 1 1 1 1 1 1 0
90 18 8 271 309 305 149 4 4 4 2 8 9 16 6 1 0 2 0 1 5 3 1 0 1 0 6 3 2 2 0 0 0 0 2 3 6 9 13 14 16 13 16 12

GFSNGP_con_mlcape_072.txt.gz
CAPE
8 0 0 0 0 0 0 0 1 2 651 555 57 17 213 2103 2723 2282 1646 1432 2532 2857 2981 2832 2773 2580 2550 2802 2696 2979 3021 2573 2790 2342 2025 1833 1664 1446 1063 935 853 867 664 570
37 24 22 0 1 12 2 0 0 11 332 165 5 328 876 1248 2433 2484 2194 2229 2930 3349 3441 3324 3089 2813 2893 2845 2854 3405 3210 2563 2811 2526 2047 1797 1550 1415 1134 971 977 903 692 593
146 30 41 2 7 167 11 13 205 167 673 581 1185 1489 1565 1917 2119 1835 1600 1837 2247 2430 2829 3982 3776 3372 3238 3124 3167 3099 3276 2661 2659 2372 2322 1757 1613 1422 1269 1089 1248 1278 936 987
188 181 32 34 75 662 624 1011 1127 653 31 0 931 1836 1778 2037 2201 2337 2576 2847 2805 2039 2053 2601 3329 4091 3691 3538 3268 3429 3390 2767 2674 2508 2204 1653 1577 1612 1282 1432 1604 1341 1098 1058
47 25 35 0 19 538 1040 1038 1065 0 90 1037 1252 1724 1800 1698 1839 2043 2331 2695 2995 2902 1966 1921 2308 2468 3847 3685 3389 3437 3384 2915 2640 2494 2111 1835 1875 1778 1544 1674 1597 1181 1070 844
16 28 12 385 6 0 19 916 883 1143 862 1247 1445 1705 1512 1168 1125 1115 1360 2054 2349 3034 2787 2653 2949 2128 1898 3753 3696 3483 3183 2665 2447 2360 2257 2101 1872 1801 1908 1595 1479 1198 1143 893
0 0 19 648 373 633 0 771 741 811 767 931 1052 1052 885 926 1084 1094 1178 1224 1805 1993 2778 3250 3519 3688 2809 2765 3492 3523 3060 2611 1956 1976 2217 1928 1629 1738 1733 1641 1350 1309 920 807
0 0 45 542 866 1186 1171 686 622 580 418 427 645 782 751 753 757 804 872 1007 1169 1444 1779 2033 2410 2787 2806 2563 2532 2766 2413 2118 1551 1550 1993 1731 1461 1596 1763 1397 1284 1000 751 608
854 878 832 374 326 305 426 391 294 343 360 348 400 360 354 408 625 474 649 625 736 837 995 1599 2125 2507 2592 2246 1234 693 287 0 374 1017 1148 1662 1443 1385 1364 1258 1095 1018 627 321
68 847 626 391 119 94 127 134 164 212 250 257 238 338 449 443 560 601 526 551 549 827 1265 1348 1633 2266 2006 1424 792 269 4 1 347 700 1246 1427 1286 1140 846 726 587 587 391 344
190 428 165 338 268 118 149 243 244 151 202 223 290 402 424 637 421 237 64 3 2 1 95 640 1012 1851 1574 1401 972 39 166 347 107 893 936 1032 843 602 732 107 429 533 349 206
88 78 146 458 158 9 23 41 60 31 66 706 502 586 449 398 322 175 11 2 2 2 2 2 232 696 707 1263 1126 854 654 223 654 838 626 626 549 223 0 8 0 0 0 2
147 1 2 6 48 3 0 0 0 3 83 570 537 364 275 85 30 44 7 3 0 0 0 1 3 5 2 51 296 471 477 400 360 312 322 393 523 370 0 0 0 0 0 0
181 49 0 9 0 0 0 0 0 29 243 439 483 390 242 69 0 2 0 0 0 1 1 3 2 1 1 0 0 0 0 1 155 12 70 126 161 126 24 2 0 0 0 0
3 1 0 0 14 24 19 19 20 195 589 651 647 315 232 69 0 0 0 0 0 0 0 0 0 0 0 0 0 0 0 0 0 0 0 0 0 0 0 0 83 106 0 0
26 4 8 44 40 51 127 444 491 459 532 427 486 179 5 0 0 0 0 0 0 0 0 0 0 0 0 10 0 0 0 0 0 0 0 0 0 0 2 0 5 43 54 5
0 3 30 9 28 270 376 495 510 235 125 211 208 123 99 78 17 16 0 0 0 0 0 0 0 0 12 9 2 11 0 0 0 0 0 0 6 36 39 26 24 56 31 0
0 4 40 198 324 330 237 140 78 0 0 0 39 117 192 182 149 78 40 11 4 5 0 0 0 0 2 0 0 0 1 1 14 5 6 4 11 20 51 17 48 37 0 0
65 262 204 292 364 298 412 255 26 0 0 0 4 72 56 19 5 17 5 1 0 7 0 0 0 4 3 0 0 0 3 0 0 12 37 44 48 49 45 74 42 10 0 1
105 218 318 340 338 343 232 312 363 167 79 88 26 40 42 15 1 0 0 0 0 3 1 1 0 1 6 1 1 1 0 0 0 2 7 48 31 12 10 4 11 8 0 0
347 382 374 464 337 224 218 203 193 231 69 26 23 20 10 0 1 0 2 1 4 1 0 1 5 2 5 4 2 1 4 8 3 4 33 47 24 2 1 1 2 0 0 0
372 380 483 285 0 55 300 256 194 42 88 61 55 11 7 4 6 9 14 6 1 0 0 3 1 0 2 0 11 3 0 0 0 5 5 6 2 0 0 0 0 0 0 0
352 408 390 433 107 233 467 329 72 136 88 31 0 0 0 4 7 12 13 8 3 1 1 1 0 0 0 0 0 2 2 2 4 0 0 0 0 0 0 1 0 0 0 0
0 32 124 260 319 315 131 172 83 1 13 0 2 4 7 7 7 0 0 0 0 0 0 0 0 0 0 0 14 1 0 4 19 22 5 5 2 1 3 1 1 0 0 0
62 17 38 21 25 273 425 342 27 13 9 1 1 0 8 13 10 0 0 0 0 0 0 0 0 0 0 0 0 0 1 0 0 1 0 0 0 0 0 0 0 0 0 0
125 52 5 225 357 462 337 190 22 10 13 16 20 23 30 0 0 0 0 0 0 0 5 3 0 1 3 2 1 0 0 0 0 0 0 0 0 0 0 0 0 0 0 0
246 220 93 139 416 466 387 74 13 12 6 27 14 10 14 1 0 1 0 0 0 0 0 0 0 0 1 3 1 0 1 0 0 0 0 0 0 2 4 3 2 6 6 8

GFSNGP_con_mlcape_075.txt.gz
CAPE
19 24 24 0 0 0 0 1 25 2 128 526 338 379 944 510 0 14 1283 1359 1380 2085 2220 2382 2231 2357 2273 2289 2602 2658 2499 2425 2265 2043 1970 1849 1462 1527 1149 859 880 640 411 309
39 139 39 2 166 166 398 415 114 159 417 116 28 1177 1482 112 67 1480 2049 2639 3154 2492 2572 2626 2407 2309 2257 2264 2488 2614 2518 2392 2486 2319 1989 1866 1644 1448 1192 856 778 709 494 360
386 296 185 65 1202 1029 426 207 421 464 807 1366 1466 1554 1601 1610 1835 2039 2297 2455 1910 984 2710 3040 2617 2272 2124 2294 2360 2676 2756 2647 2523 2376 1923 1576 1512 1518 1189 821 793 692 599 409
33 139 138 187 611 948 605 421 156 188 413 932 1241 1331 1228 1476 1723 2069 2206 2271 2257 2056 2287 2000 1867 2900 2329 2463 2431 2930 3086 2864 2385 2358 1694 1478 1333 1043 948 905 854 860 819 756
0 17 84 690 72 176 542 33 232 97 17 312 458 343 625 846 994 1175 1409 2134 1937 1649 2366 2771 2916 2922 3258 3113 2981 3091 3129 2649 2554 2331 1970 1424 1119 986 934 1010 1029 1145 1010 906
4 9 80 636 0 0 0 41 0 399 172 943 31 0 0 839 1013 1040 1092 1191 1429 1381 1425 1919 2012 2281 2663 2845 2832 3414 3270 3068 2772 2180 1715 1180 821 957 1095 1105 1120 1049 874 756
32 43 524 720 87 129 5 95 298 115 330 590 0 1 11 1040 927 714 777 712 696 780 1596 1099 1060 1706 2200 2479 2340 2230 2747 2239 322 0 0 77 569 1103 1039 1186 1115 983 924 803
307 47 29 408 510 931 623 529 539 391 333 527 528 394 453 812 590 645 639 572 483 609 870 1308 1557 1774 1984 2032 1663 1263 714 408 1 0 1 0 15 91 819 845 793 859 894 590
9 169 385 283 413 341 201 198 195 254 178 203 270 559 558 506 560 435 216 48 1 9 152 397 732 742 1763 1380 1044 805 308 3 0 0 0 0 0 0 590 681 704 751 476 364
56 297 155 192 199 193 108 182 178 179 235 254 308 334 475 485 321 135 2 0 0 0 0 0 46 199 1471 1224 709 392 42 0 0 0 0 0 0 1 419 470 453 423 527 463
122 218 232 15 143 328 330 263 170 82 361 432 373 398 504 339 236 17 0 0 0 0 0 1 1 2 1 311 696 166 0 0 0 0 0 162 415 331 392 187 312 487 464 418
34 14 0 0 0 10 2 17 80 9 404 478 237 247 270 36 66 1 0 0 0 0 0 1 0 0 0 1 54 511 293 0 0 0 11 345 143 128 3 22 39 138 36 40
173 38 2 0 8 27 0 0 0 0 295 215 409 220 54 0 0 3 5 0 0 0 0 0 0 0 0 0 0 1 0 0 4 1 86 168 165 66 63 0 0 0 0 0
75 41 80 4 1 0 0 0 3 83 423 436 275 185 42 0 0 0 0 0 0 0 0 0 0 0 0 0 0 0 0 1 0 0 3 0 0 115 0 0 0 0 0 0
1 8 0 1 41 86 247 311 294 342 191 433 226 160 81 0 0 0 0 0 0 0 0 0 0 0 0 0 0 0 0 0 0 0 0 0 0 0 0 0 0 0 0 0
3 0 20 34 37 31 44 81 14 11 190 278 133 76 32 0 0 0 0 0 0 0 0 0 0 0 5 2 5 0 0 0 0 0 0 0 0 0 0 0 0 0 0 0
0 0 3 31 27 65 17 2 28 17 51 25 14 4 42 52 38 24 17 0 0 0 0 0 0 0 0 0 0 0 0 0 0 0 0 0 0 0 0 0 0 27 17 0
0 0 77 201 108 13 80 23 0 0 0 0 0 0 0 22 8 9 3 0 0 4 0 0 0 0 1 0 0 0 0 0 0 0 0 0 1 0 7 8 6 17 22 13
45 60 130 141 96 176 114 119 43 0 0 0 0 0 5 39 23 0 0 0 0 0 0 0 0 8 2 0 0 0 0 0 0 0 3 0 1 2 0 6 0 0 0 0
166 183 216 233 210 27 57 69 308 127 186 158 45 15 0 0 0 0 0 0 0 0 0 1 2 3 4 4 0 0 0 0 0 12 3 0 0 9 2 0 0 0 0 0
182 303 256 145 13 2 0 17 40 247 205 49 8 0 0 0 0 0 0 0 0 0 0 1 2 3 5 0 0 0 0 0 2 21 6 1 0 3 5 0 0 0 0 0
66 156 215 61 0 0 0 0 0 112 119 119 66 0 0 0 0 0 4 3 1 0 0 7 3 0 1 0 2 3 1 1 1 3 2 1 0 1 0 0 0 0 0 0
17 31 78 263 216 44 0 99 1 140 94 28 3 0 0 0 0 0 0 0 0 0 0 1 0 0 0 0 2 12 9 7 6 6 5 3 4 2 0 0 0 0 0 0
0 0 0 0 20 184 132 131 81 20 0 0 0 0 0 0 2 0 0 0 0 0 0 0 0 0 0 0 0 15 13 22 11 0 4 12 0 0 0 0 0 0 0 0
2 0 1 15 36 179 183 218 113 19 14 8 1 0 1 22 6 0 0 0 0 0 0 0 0 0 0 0 0 0 0 0 18 23 0 0 0 0 0 0 0 0 0 0
21 5 73 1 142 209 300 208 116 19 33 21 20 25 31 4 0 0 0 0 0 0 0 0 0 0 0 0 0 0 0 0 0 0 0 0 0 0 0 0 0 0 0 0
258 269 213 262 343 396 319 147 6 0 10 12 1 2 10 0 0 0 0 0 0 0 0 0 0 0 0 0 0 0 0 0 0 0 0 0 0 0 0 0 0 0 0 0

GFSNGP_con_mlcape_078.txt.gz
CAPE
0 223 112 38 49 395 84 30 0 8 5 704 846 861 296 620 747 307 10 0 68 927 1069 1997 1989 2138 2333 2290 2231 2220 2088 2106 2277 2229 1883 1650 1644 1441 1151 993 892 663 606 398
5 96 845 743 494 918 358 128 331 530 424 935 700 107 6 0 0 39 10 188 649 678 628 284 1386 1675 2286 2291 2234 2149 2195 2049 1855 2045 1922 1679 1558 1466 1235 999 839 704 708 532
0 23 323 344 996 669 617 564 745 753 592 632 691 529 481 328 508 1463 1591 265 334 118 0 6 0 20 1559 2111 2213 2140 2205 2213 2083 2098 1999 1821 1663 1486 1210 962 799 742 650 455
9 42 308 878 653 599 507 322 445 165 243 401 305 151 421 551 725 766 485 724 735 396 381 474 378 991 2237 2053 2014 2142 2309 2412 2233 2298 1724 1350 871 340 868 1005 786 663 655 576
6 78 379 579 420 505 555 376 382 480 296 55 0 0 28 175 266 354 273 358 318 625 1044 647 690 1780 2120 2232 2538 2378 2471 2440 2358 1556 321 93 0 0 0 95 677 661 712 722
3 10 20 483 0 5 12 137 441 355 25 18 0 0 0 55 202 329 255 180 152 242 473 561 875 1439 1583 1775 1670 1497 1742 2635 1598 600 270 0 0 0 0 0 0 398 823 900
11 17 586 406 127 44 16 26 76 16 17 0 0 0 0 146 246 239 17 23 0 0 52 192 349 545 1105 1362 1178 1027 975 1220 881 568 278 30 0 0 0 0 1 89 612 760
18 166 96 420 371 544 530 129 74 78 263 64 12 3 0 143 77 57 42 0 0 0 0 1 103 324 676 1200 909 525 318 337 359 344 277 136 1 0 0 0 13 272 448 481
0 107 50 177 380 273 216 322 163 170 253 259 112 190 429 262 138 21 0 0 0 0 0 0 0 0 280 619 810 345 155 3 0 0 0 0 0 0 0 0 99 377 387 326
146 43 8 55 120 211 131 145 136 222 249 263 285 408 262 164 33 0 0 0 0 0 0 0 0 0 1 11 507 285 163 0 0 0 0 0 0 0 0 0 1 189 247 173
259 100 23 18 0 10 142 142 169 278 293 271 205 175 246 156 45 0 0 0 0 0 0 0 0 0 0 2 1 253 22 0 0 0 1 39 0 0 0 0 90 131 50 36
2 131 30 0 2 0 2 14 37 126 310 438 214 103 172 118 49 2 0 0 0 0 0 0 0 0 0 0 1 2 220 117 0 22 0 46 43 13 0 0 0 57 43 70
12 0 0 0 0 0 7 0 29 0 112 207 138 79 72 54 18 0 0 0 0 0 0 0 0 0 0 0 0 0 1 2 0 0 0 7 7 4 0 0 0 0 0 0
4 20 2 1 0 0 9 116 181 377 357 251 120 58 52 41 14 0 0 0 0 0 0 0 0 0 0 2 0 0 0 1 3 2 2 0 16 27 0 0 0 0 0 0
15 22 3 1 131 221 208 167 106 65 193 104 127 120 37 5 0 0 0 0 0 0 0 0 0 0 0 0 0 0 0 0 0 0 0 1 2 1 0 0 0 0 0 0
15 41 48 80 74 51 22 7 8 49 93 83 62 30 0 0 0 0 0 0 0 0 0 0 0 0 0 0 0 0 0 0 0 0 0 0 0 0 0 0 0 0 0 0
0 18 5 4 21 20 11 0 0 8 48 45 1 9 43 41 41 37 39 2 0 0 0 0 0 0 0 0 0 0 0 0 0 1 4 0 0 0 0 1 0 0 0 0
0 0 2 51 23 30 13 0 0 0 0 0 0 0 0 0 14 27 0 0 0 0 0 0 0 0 0 0 0 0 0 0 0 0 0 0 0 0 0 0 5 1 0 4
34 76 134 29 30 31 7 0 0 0 0 0 0 0 0 0 4 3 0 0 0 0 0 0 0 2 1 0 0 0 0 0 0 0 0 0 9 3 6 7 2 1 0 0
131 72 20 16 9 4 12 1 1 23 4 4 0 6 0 0 0 0 0 0 0 0 0 0 1 1 0 0 0 0 0 0 0 0 0 1 1 0 0 0 0 2 1 0
12 15 13 4 0 0 0 0 0 4 55 67 16 0 0 0 0 0 0 0 0 0 0 0 2 0 0 0 0 0 0 0 0 0 0 1 0 0 0 0 0 0 0 0
8 0 0 0 0 0 0 0 0 1 19 0 0 0 0 0 0 0 0 0 0 0 0 4 0 0 0 0 0 0 0 6 2 10 3 0 1 3 4 0 0 0 0 0
0 0 0 0 0 0 0 3 0 1 6 0 0 0 0 0 0 0 0 0 0 0 0 0 0 0 0 0 0 1 1 5 12 7 4 2 3 1 0 0 0 0 0 0
0 0 0 0 0 4 13 24 25 15 0 0 0 0 0 0 0 0 0 0 0 0 0 0 0 0 0 0 0 0 5 9 6 4 4 3 0 0 0 0 0 0 0 0
0 0 1 1 0 13 28 12 14 0 0 0 0 0 0 0 0 0 0 0 0 0 0 0 0 0 0 0 0 0 0 1 27 12 5 0 0 0 0 0 0 0 0 0
9 7 39 22 25 14 27 92 52 10 0 10 1 1 8 19 0 0 0 0 0 0 0 0 0 0 0 0 0 0 0 0 0 0 0 0 0 0 0 0 0 0 0 0
56 10 15 110 135 226 135 51 17 44 10 28 19 1 8 7 0 0 0 0 0 0 0 0 0 0 0 0 0 0 0 0 0 0 0 0 0 0 0 0 0 0 0 0

GFSNGP_con_mlcape_084.txt.gz
CAPE
4 2 45 672 743 756 119 0 0 0 5 454 615 711 1091 855 716 550 677 647 602 429 159 33 200 255 558 874 1081 1232 1162 1088 993 896 999 1330 1184 1085 783 694 759 638 541 486
0 1 24 104 117 28 737 608 747 608 558 899 751 1003 1155 1046 788 403 151 45 50 20 0 2 36 13 33 55 229 12 42 95 11 267 972 1183 1028 992 780 726 587 555 502 400
0 1 75 286 453 45 456 600 763 586 728 687 826 922 825 633 701 657 556 84 21 2 0 2 1 21 181 85 3 4 0 0 0 0 388 1060 903 878 829 602 278 208 294 372
0 0 1 467 239 520 257 396 736 759 673 593 473 210 235 330 353 306 395 50 0 1 98 461 229 372 943 728 25 2 0 0 0 15 212 562 743 577 528 356 0 0 42 76
0 0 26 455 3 1 9 15 517 539 297 55 36 19 0 3 148 29 0 107 74 77 106 45 17 42 691 706 814 470 0 0 0 111 559 735 745 413 387 309 13 0 3 0
0 5 1 178 139 13 33 34 590 371 240 306 141 30 0 5 119 0 0 0 0 0 0 1 0 0 23 247 164 162 134 159 273 1329 888 868 651 428 290 34 16 0 0 0
12 35 212 484 287 353 84 122 562 138 20 44 0 0 164 165 7 0 0 0 0 0 0 0 0 0 0 1 2 7 68 70 40 391 763 492 100 25 0 0 0 0 0 0
1 93 71 340 583 487 391 441 347 372 366 29 209 325 118 8 0 0 0 0 0 0 0 0 0 0 0 0 0 0 10 50 11 0 20 80 58 0 0 0 0 0 0 0
0 56 105 98 356 349 366 455 397 434 455 17 171 118 9 0 0 0 0 0 0 0 0 0 0 0 0 0 0 0 0 0 0 0 0 0 0 0 0 0 0 0 0 0
44 76 177 240 249 203 138 210 361 362 357 438 345 67 1 0 0 0 0 0 0 0 0 0 0 0 0 0 0 0 0 0 0 0 0 0 0 0 0 0 0 1 0 0
7 69 119 130 119 3 22 105 322 220 409 342 116 52 6 0 0 0 0 0 0 0 0 0 0 0 0 0 0 0 0 0 0 0 0 0 0 0 0 0 1 1 0 0
18 39 33 21 10 0 1 5 15 36 49 249 146 68 21 0 0 0 0 0 0 0 0 0 0 0 0 0 0 0 0 0 0 0 0 2 3 0 2 0 0 0 0 0
70 59 20 0 0 0 0 0 0 16 59 62 35 0 5 0 0 0 0 0 0 0 0 0 0 0 0 0 0 0 0 0 0 0 2 0 1 2 2 0 1 2 0 0
65 87 74 38 6 16 0 149 51 57 75 112 0 0 0 0 0 0 0 0 0 0 0 0 0 0 0 0 0 0 0 0 0 1 2 1 0 1 11 0 0 0 6 0
100 110 54 31 129 136 319 67 7 2 8 0 0 0 0 0 0 0 0 0 0 0 0 0 0 0 0 0 0 0 0 0 0 0 0 0 1 1 0 0 1 3 6 7
53 49 12 15 209 245 6 7 0 0 5 0 0 0 0 0 0 0 0 0 2 0 0 0 0 0 0 0 0 0 0 0 0 0 0 0 0 0 0 1 0 0 1 4
27 7 31 36 122 10 6 0 0 0 0 0 0 0 0 0 0 0 0 3 0 0 0 0 0 0 0 0 0 0 0 0 0 0 0 0 0 3 0 2 1 0 0 0
0 0 89 29 65 8 16 4 0 0 0 0 0 0 0 0 0 0 0 0 0 0 0 0 0 0 0 0 0 0 0 0 0 0 0 0 0 6 0 0 1 0 0 0
0 0 15 123 56 12 9 4 1 0 0 0 0 0 0 4 0 0 0 0 0 0 0 0 0 0 0 0 0 0 0 0 0 0 0 0 0 0 3 3 8 5 3 1
7 0 0 22 15 6 1 0 0 0 0 0 0 0 8 0 0 0 0 0 0 0 0 0 0 0 0 0 0 0 0 0 0 0 0 0 0 0 1 4 1 3 6 0
100 57 29 16 0 0 0 0 0 0 0 0 0 0 2 0 0 0 0 0 0 0 0 0 2 0 0 0 0 0 0 0 0 0 0 0 0 0 0 6 1 0 2 2
20 1 0 0 0 0 0 0 0 0 0 0 0 0 0 0 0 0 0 0 0 0 0 0 0 0 0 0 0 0 7 6 9 8 2 0 0 1 0 0 1 0 0 0
0 0 0 0 0 0 0 0 0 0 0 0 0 0 0 0 0 0 0 0 0 0 0 0 0 0 0 0 0 0 10 9 8 8 6 4 0 0 0 0 0 0 0 0
0 0 0 0 0 0 0 0 0 0 0 0 0 0 0 0 0 0 0 0 0 0 0 0 0 0 0 0 0 3 12 13 15 5 11 9 6 19 11 0 0 0 0 0
0 0 0 0 0 0 1 7 16 16 7 0 0 0 0 0 0 0 0 0 0 0 0 0 0 0 0 0 0 0 0 11 4 0 0 0 0 0 0 0 0 0 0 0
6 6 8 6 11 26 18 23 41 36 22 22 18 3 1 0 0 0 0 0 0 0 0 0 0 0 0 0 0 0 0 0 18 8 2 0 0 0 0 0 0 0 0 0
5 0 11 16 11 9 8 11 18 47 25 32 39 42 25 24 27 17 0 0 0 0 0 0 0 0 0 0 0 0 0 0 0 14 10 1 0 0 0 0 0 0 0 0

GFSNGP_con_mlcape_087.txt.gz
CAPE
0 19 30 81 270 664 566 844 370 101 29 603 907 1191 1043 820 826 919 867 644 417 432 268 79 3 0 0 75 1189 1262 1290 1343 1126 1079 1369 1735 1769 1958 1795 1787 1540 1292 1065 1018
18 7 19 60 273 249 293 345 438 1003 669 823 870 1049 1040 965 824 647 541 337 177 99 72 7 0 0 16 45 68 959 1127 621 709 593 470 469 471 815 1363 1689 1397 1120 1003 961
8 17 0 37 564 713 189 35 274 234 698 923 926 822 781 729 731 701 427 298 154 494 261 15 41 27 8 14 2 0 3 18 37 151 151 49 43 80 368 1084 1580 1168 1092 1048
1 0 0 398 501 212 252 313 73 589 759 876 826 720 643 582 461 519 419 332 213 234 213 86 116 343 861 377 240 33 0 0 0 4 25 0 7 17 82 427 1332 1405 1247 1099
26 10 8 380 137 7 31 99 26 34 54 10 120 206 234 332 357 183 187 62 19 4 2 2 29 180 381 293 604 47 23 81 0 2 0 0 0 0 77 419 1114 1293 789 491
2 50 0 342 35 219 52 0 0 103 309 335 467 348 144 353 161 1 3 5 0 0 1 0 0 0 5 44 78 82 112 147 95 163 307 366 108 124 315 473 580 428 259 75
132 115 345 561 501 443 16 16 101 327 136 300 240 47 433 179 1 0 0 2 2 2 0 0 1 0 1 0 0 4 32 103 63 31 98 338 365 215 152 96 40 50 40 28
67 53 110 242 295 249 280 634 482 508 285 266 279 437 228 7 0 0 0 0 0 0 0 1 0 0 0 0 1 2 1 19 24 2 0 11 19 18 2 0 1 4 0 0
117 166 229 111 219 204 398 534 711 768 369 551 352 301 88 0 0 0 0 0 0 0 0 0 0 0 0 0 0 0 0 0 3 4 0 0 0 0 0 1 1 0 1 2
64 145 365 198 195 59 123 594 651 541 428 592 222 61 2 0 0 0 0 0 0 0 0 0 1 1 2 4 3 1 0 0 0 0 1 4 3 1 0 0 0 0 0 0
47 99 247 286 108 58 247 492 551 648 588 382 159 11 10 0 0 0 0 0 0 0 0 0 0 0 0 0 0 0 1 3 3 0 2 1 2 3 0 2 1 3 1 4
56 116 157 187 88 103 116 47 198 215 285 541 394 76 31 0 0 0 0 0 0 0 0 0 0 0 0 0 0 0 0 0 0 0 2 2 3 2 0 1 0 0 0 0
136 254 126 114 67 35 32 39 134 211 402 365 214 332 119 9 0 0 0 0 0 0 0 0 0 0 0 0 1 0 0 0 0 3 6 1 1 2 4 1 2 1 0 0
84 182 213 88 117 153 74 377 366 284 320 293 182 195 100 55 1 8 2 0 0 0 0 0 0 0 0 0 0 0 0 0 0 0 2 6 0 3 2 1 0 0 1 0
104 257 167 176 414 272 485 126 7 4 71 101 92 50 72 24 15 11 0 0 0 0 0 1 1 0 0 0 0 0 0 0 0 0 0 1 9 2 2 4 3 3 4 4
129 183 188 146 290 467 64 29 1 6 30 98 46 9 4 0 0 0 0 0 3 5 6 4 0 0 0 0 0 0 0 0 0 0 0 1 7 1 3 1 2 2 3 3
151 107 74 72 177 330 22 11 7 5 10 0 0 0 0 0 9 0 0 0 0 1 2 1 0 0 0 0 1 3 2 0 0 0 0 7 3 0 0 0 0 0 0 0
98 11 79 144 238 121 26 15 21 27 33 9 0 0 0 1 10 19 3 0 0 0 0 0 1 1 4 1 0 1 1 0 0 0 0 3 23 38 3 2 0 1 0 0
94 12 39 358 317 54 38 18 21 1 0 0 0 0 7 25 27 15 0 0 0 0 0 0 0 4 7 5 0 0 0 1 1 0 1 9 64 41 56 1 1 1 1 0
48 0 90 161 103 71 23 1 5 6 2 0 0 4 3 6 9 0 0 0 0 0 0 1 5 2 0 0 0 0 8 11 7 12 4 7 2 3 8 7 0 1 0 1
144 131 117 117 38 2 0 0 0 0 0 0 0 6 19 23 2 0 0 0 0 0 0 0 3 3 6 0 0 0 12 23 20 27 23 21 17 0 0 6 2 0 1 2
31 8 0 0 0 0 0 0 0 0 0 0 0 0 0 0 0 0 0 0 0 0 0 0 0 2 0 0 0 10 8 14 19 17 10 4 36 16 1 3 9 3 3 2
0 0 0 0 0 0 0 0 0 0 0 0 0 0 0 0 0 0 0 0 0 0 0 0 0 0 0 0 1 14 34 14 12 25 10 8 5 0 2 11 3 3 2 2
0 0 0 0 0 0 0 9 12 8 14 5 0 0 0 0 0 0 0 0 0 0 0 0 0 0 0 0 4 21 37 38 13 10 10 4 20 35 29 4 0 0 0 0
0 3 4 11 19 25 16 1 19 35 30 28 30 19 3 0 0 9 12 1 0 0 0 0 0 0 0 0 0 0 0 12 41 34 28 16 2 0 0 6 0 0 0 0
9 25 37 14 13 26 45 36 25 29 37 45 62 76 92 68 31 7 18 11 0 0 0 0 0 0 0 0 0 0 0 0 2 41 32 41 32 16 0 0 0 0 0 0
30 3 20 25 9 3 25 34 23 40 70 68 66 49 30 150 96 73 73 47 0 0 0 0 0 0 0 0 5 14 14 9 0 3 37 45 45 37 17 4 0 0 0 0